This is the latest recevied weather packets stored in our database for station/object G1OCN-WX. If no packets are shown the sender has not sent any weather packets the latest 1 day(s).
| Time | Temp. | Humidity | Pressure | Rain* | Wind** | Luminosity | Snow |
|---|---|---|---|---|---|---|---|
| 1778053223 | 8.33° C | 86% | 1013.6 hPa | 0.25 mm | 3.58 m/s, 71° | - | - |
| 1778053163 | 8.33° C | 86% | 1013.6 hPa | 0.25 mm | 4.02 m/s, 71° | - | - |
| 1778053103 | 8.33° C | 86% | 1013.6 hPa | 0.25 mm | 4.47 m/s, 79° | - | - |
| 1778053043 | 8.33° C | 86% | 1013.5 hPa | 0.25 mm | 3.58 m/s, 75° | - | - |
| 1778052983 | 8.33° C | 86% | 1013.5 hPa | 0 mm | 3.58 m/s, 65° | - | - |
| 1778052923 | 8.33° C | 86% | 1013.5 hPa | 0 mm | 4.47 m/s, 67° | - | - |
| 1778052833 | 8.33° C | 86% | 1013.5 hPa | 0 mm | 5.36 m/s, 78° | - | - |
| 1778052773 | 8.33° C | 86% | 1013.5 hPa | 0 mm | 4.02 m/s, 70° | - | - |
| 1778052713 | 8.33° C | 86% | 1013.5 hPa | 0 mm | 4.02 m/s, 70° | - | - |
| 1778052653 | 8.33° C | 86% | 1013.5 hPa | 0 mm | 4.47 m/s, 73° | - | - |
| 1778052593 | 8.33° C | 86% | 1013.5 hPa | 0 mm | 5.36 m/s, 65° | - | - |
| 1778052533 | 8.33° C | 86% | 1013.5 hPa | 0 mm | 4.47 m/s, 69° | - | - |
| 1778052472 | 8.33° C | 86% | 1013.5 hPa | 0 mm | 4.02 m/s, 63° | - | - |
| 1778052412 | 8.33° C | 86% | 1013.5 hPa | 0 mm | 4.47 m/s, 68° | - | - |
| 1778052352 | 8.33° C | 86% | 1013.5 hPa | 0 mm | 5.36 m/s, 65° | - | - |
| 1778052292 | 8.33° C | 86% | 1013.5 hPa | 0 mm | 5.36 m/s, 67° | - | - |
| 1778052232 | 8.33° C | 86% | 1013.4 hPa | 0 mm | 5.81 m/s, 68° | - | - |
| 1778052172 | 8.33° C | 86% | 1013.4 hPa | 0 mm | 5.36 m/s, 67° | - | - |
| 1778052112 | 8.33° C | 86% | 1013.4 hPa | 0 mm | 4.47 m/s, 66° | - | - |
| 1778052052 | 8.33° C | 86% | 1013.4 hPa | 0 mm | 4.47 m/s, 66° | - | - |
| 1778051992 | 8.33° C | 86% | 1013.4 hPa | 0 mm | 4.47 m/s, 63° | - | - |
| 1778051932 | 8.33° C | 86% | 1013.4 hPa | 0 mm | 5.36 m/s, 67° | - | - |
| 1778051872 | 8.33° C | 86% | 1013.4 hPa | 0 mm | 5.36 m/s, 64° | - | - |
| 1778051812 | 8.33° C | 86% | 1013.4 hPa | 0 mm | 5.36 m/s, 78° | - | - |
| 1778051752 | 8.33° C | 86% | 1013.3 hPa | 0 mm | 5.81 m/s, 64° | - | - |
* Rain latest hour (hover to see other rain measurements)
** Current wind speed in m/s (hover to see current wind gust speed)